Regional Weather Roundup
Issued by NWS Albany, NY

Home | Current Version | Previous Version | Graphics & Text | Print | Product List | Glossary Off
Versions: 1 2 3 4 5 6 7 8 9 10 11 12 13 14 15 16 17 18 19 20 21 22 23 24 25 26 27 28 29 30 31 32 33 34 35 36 37 38 39 40 41 42 43 44 45 46 47 48 49 50

000
ASUS41 KALY 181410
RWRALY

NEW YORK STATE HOURLY WEATHER ROUNDUP
NATIONAL WEATHER SERVICE ALBANY NY
1000 AM EDT SAT APR 18 2015

NOTE: "FAIR" INDICATES FEW OR NO CLOUDS BELOW 12,000 FEET WITH NO
SIGNIFICANT WEATHER AND/OR NO OBSTRUCTIONS TO VISIBILITY.

NYZ032-033-038>043-046>054-057>066-NYZ062>081-181500-
EAST


CITY           SKY/WX    TMP DP  RH WIND       PRES   REMARKS
ALBANY         SUNNY     62  44  51 NW7       29.96F
GLENS FALLS    SUNNY     54  43  66 CALM      29.96F
POUGHKEEPSIE   SUNNY     64  47  53 SW5       29.97F
NEWBURGH       SUNNY     63  48  59 W12       30.00S
MONTGOMERY     SUNNY     66  46  48 W7        29.98S
WHITE PLAINS   SUNNY     65  45  48 NW8       29.99S
ISLIP          MOSUNNY   67  45  45 SW6       29.98S
NEW YORK CITY  MOSUNNY   66  44  45 NW5       29.99F
CENTRAL PARK   SUNNY     66  43  43 W8        30.02F
$$

NYZ005>009-017-018-044>046-055-056-181500-
CENTRAL


CITY           SKY/WX    TMP DP  RH WIND       PRES   REMARKS
FULTON         PTSUNNY   60  45  57 VRB7      29.94F
SYRACUSE       MOSUNNY   63  43  48 W8        29.95F
ROME           SUNNY     50  47  89 W3        29.98S
ELMIRA         SUNNY     61  45  55 SW7       29.98F
BINGHAMTON     SUNNY     57  43  59 W10       29.99F
MONTICELLO     SUNNY     59  45  58 W8        30.02S
$$

NYZ026>034-041>043-181500-
NORTH


CITY           SKY/WX    TMP DP  RH WIND       PRES   REMARKS
WATERTOWN      CLOUDY    51  41  68 SW8       29.93F
FORT DRUM      NOT AVBL
MASSENA        MOSUNNY   53  39  59 S5        29.91F
SARANAC LAKE   MOSUNNY   50  41  71 SW9       29.89F
PLATTSBURGH    SUNNY     46  28  49 NE7       29.94F
$$

NYZ001>004-010>016-019>021-181500-
WEST


CITY           SKY/WX    TMP DP  RH WIND       PRES   REMARKS
NIAGARA FALLS  MOSUNNY   58  46  64 SW13      29.97F
BUFFALO        MOSUNNY   57  43  59 SW20G26   29.99R
DUNKIRK        MOSUNNY   58  43  57 W16G25    30.03R
JAMESTOWN      SUNNY     61  43  51 SW12      30.04S
WELLSVILLE     SUNNY     62  36  37 W13G23    30.02F
ROCHESTER      MOSUNNY   62  44  51 W10       29.94F
PENN YAN       SUNNY     64  42  44 SW13      29.96F
$$

             KEY
       WCI = WIND CHILL INDEX
       VSB = VISIBILITY
       HX  = HEAT INDEX
$$


USA.gov is the U.S. government's official web portal to all federal, state and local government web resources and services.